Flag for Germany Weather past 2 weeks in Dreieich, Hesse, Germany

Now
73 °F

Overcast.


Feels Like: 74 °F
Forecast: 65 / 78 °F
Wind: 3 mph from Northeast

Location: Frankfurt / M-Flughafen

Current Time: Jul 29, 2014 at 11:36:35 AM

Latest Report: Jul 29, 2014 at 11:00 AM


Visibility: 15 mi

Pressure: 29.78 "Hg

Humidity: 77%

Dew point: 65 °F

Location of DreieichLocation

Historic Weather in Dreieich — Graph

°F

Dreieich temperature yesterday

Maximum temperature yesterday: 85 °F (at 4:00 PM)
Minimum temperature yesterday: 65 °F (at 6:00 AM)
Average temperature yesterday: 73 °F

Past Weeks' High & Low Weather Summary

 TemperatureHumidityPressure
High93 °F (Jul 19, 5:00 PM)94% (Jul 29, 4:00 AM)30.19 "Hg (Jul 29, 4:00 AM)
Low59 °F (Jul 26, 5:00 AM)22% (Jul 18, 6:00 PM)29.76 "Hg (Jul 29, 7:00 AM)
Average73 °F63%29.96 "Hg
* Reported Jul 14 10:00 AM — Jul 29 10:00 AM, Dreieich, Weather by CustomWeather, © 2014

Note: Actual official high and low records may vary slightly from our data, if they occured in-between our weather recording intervals... More about our weather records

Advertising

Dreieich weather history for previous 24 hours

 ConditionsComfort  
Time TempWeatherWind HumidityBarometerVisibility
10:00 AM
Jul 29
72 °FScattered clouds.3 mph77%29.78 "Hg12 mi
9:00 AM71 °FPartly sunny.2 mph84%29.78 "Hg9 mi
8:00 AM69 °FScattered clouds.1 mph89%29.77 "Hg10 mi
7:00 AM67 °FPartly sunny.1 mph91%29.76 "Hg11 mi
6:00 AM67 °FPartly sunny.2 mph91%29.77 "Hg9 mi
5:00 AM66 °FOvercast.2 mph91%29.77 "Hg10 mi
4:00 AM66 °FOvercast.1 mph94%29.78 "Hg10 mi
3:00 AM66 °FOvercast.1 mph92%29.79 "Hg10 mi
2:00 AM67 °FOvercast.1 mph92%29.80 "Hg10 mi
1:00 AM67 °FPassing clouds.2 mph92%29.79 "Hg16 mi
12:00 AM67 °FOvercast.3 mph90%29.79 "Hg16 mi
10:00 PM
Jul 28
71 °FOvercast.2 mph77%29.80 "Hg16 mi
9:00 PM72 °FPartly sunny.3 mph71%29.77 "Hg22 mi
8:00 PM73 °FOvercast.5 mph74%29.78 "Hg19 mi
7:00 PM72 °FThunderstorms. Overcast.2 mph75%29.78 "Hg16 mi
6:00 PM73 °FThundershowers. Overcast.2 mph78%29.80 "Hg22 mi
4:00 PM85 °FScattered clouds.2 mph35%29.78 "Hg22 mi
3:00 PM84 °FScattered clouds.2 mph42%29.80 "Hg22 mi
2:00 PM82 °FScattered clouds.2 mph45%29.82 "Hg22 mi
1:00 PM80 °FOvercast.2 mph45%29.84 "Hg19 mi
12:00 PM79 °FScattered clouds.1 mph56%29.85 "Hg11 mi
11:00 AM76 °FMild.1 mph64%29.87 "HgN/A
Weather by CustomWeather, © 2014

See weather overviewHow to use our weather pages